User: anonymous   Login
Location: Stull Observatory
(42.2506°N, 77.7903°W)
Time: 18:02:25
(UTC-05:00)
Language:

Abrixas rocket - Orbit

View from above orbital plane
View from above orbital plane
View from above satellite
View from above satellite

Ground track
Ground track

The orbit data is extracted from the following two-line orbital elements,

1 25723U 99022C   17324.53641682 +.00008332 +00000-0 +12036-3 0  9994
2 25723 048.4166 052.3567 0008347 061.9356 298.2434 15.56721983030518
Epoch (UTC): 20 November 2017 12:52:26
Eccentricity: 0.0008347
inclination: 48.4166°
perigee height: 391 km
apogee height: 403 km
right ascension of ascending node: 52.3567°
argument of perigee: 61.9356°
revolutions per day: 15.56721983
mean anomaly at epoch: 298.2434°
orbit number at epoch: 3051

The dashed part of the orbit path shows where the satellite is in the earth's shadow,  

DLR